Weather History for Norfolk, NE

Change the Weather History Date:

Saturday, January 5, 2013

  Actual Average Record
Temperature  
Mean Temperature 21 °F 22 °F  
Max Temperature 37 °F 33 °F 70 °F (2012)
Min Temperature 5 °F 12 °F -32 °F (1924)
Degree Days  
Heating Degree Days 44 43  
Month to date heating degree days 232 215  
Since 1 July heating degree days 2844 2921  
Cooling Degree Days 0 0  
Month to date cooling degree days 0 0  
Year to date cooling degree days 0 0  
Moisture  
Dew Point 13 °F    
Average Humidity 69    
Maximum Humidity 84    
Minimum Humidity 54    
Precipitation  
Precipitation 0.00 in 0.02 in 0.81 in (1989)
Month to date precipitation T 0.09  
Year to date precipitation T 0.09  
Snow  
Snow 0.00 in 0.20 in - ()
Month to date snowfall T 0.9  
Since 1 July snowfall 7.5 11.8  
Snow Depth 2.00 in    
Sea Level Pressure  
Sea Level Pressure 30.12 in    
Wind  
Wind Speed 12 mph (NW)    
Max Wind Speed 33 mph    
Max Gust Speed 38 mph    
Visibility 10 miles    
Events      
T = Trace of Precipitation, MM = Missing Value Source: NWS Daily Summary

Daily Weather History Graph

Daily Weather History Graph

Search for Another Location

Airport:

Trip Planner

Search our weather history database for the weather conditions in past years. The results will help you decide how hot, cold, wet, or windy it might be!

Date:

Astronomy

Jan. 05, 2013 Rise Set
Actual Time 7:57 AM CST 5:13 PM CST
Civil Twilight 7:26 AM CST 5:44 PM CST
Nautical Twilight 6:51 AM CST 6:19 PM CST
Astronomical Twilight 6:17 AM CST 6:53 PM CST
Moon 1:02 AM CST (1/5) 12:06 PM CST (1/5)
Length of Visible Light 10h 18m
Length of Day
9h 15m
Last Quarter, 44% of the Moon is Illuminated
Jan 5
Last Quarter
Jan 11
New
Jan 18
First Quarter
Jan 26
Full
Feb 3
Last Quarter

Hourly Weather History & Observations

Time (CST) Temp. Windchill Dew Point Humidity Pressure Visibility Wind Dir Wind Speed Gust Speed Precip Events Conditions
12:56 AM 14.0 °F 6.5 °F 8.1 °F 77% 30.09 in 10.0 mi SSW 4.6 mph - N/A   Clear
1:56 AM 10.0 °F - 3.9 °F 76% 30.09 in 10.0 mi Calm Calm - N/A   Clear
2:56 AM 10.0 °F - 6.1 °F 84% 30.09 in 10.0 mi Calm Calm - N/A   Clear
3:56 AM 8.1 °F - 5.0 °F 87% 30.06 in 9.0 mi Calm Calm - N/A   Clear
4:56 AM 12.9 °F - 8.1 °F 81% 30.04 in 10.0 mi Calm Calm - N/A   Clear
5:56 AM 10.0 °F 3.6 °F 6.1 °F 84% 30.06 in 10.0 mi NNW 3.5 mph - N/A   Clear
6:56 AM 10.9 °F 2.9 °F 6.1 °F 81% 30.06 in 10.0 mi South 4.6 mph - N/A   Clear
7:56 AM 6.1 °F -2.8 °F 1.9 °F 83% 30.07 in 10.0 mi SW 4.6 mph - N/A   Clear
8:56 AM 10.0 °F 0.4 °F 5.0 °F 80% 30.07 in 10.0 mi West 5.8 mph - N/A   Clear
9:56 AM 18.0 °F 8.7 °F 10.9 °F 74% 30.06 in 10.0 mi WNW 6.9 mph - N/A   Clear
10:56 AM 26.1 °F 16.8 °F 16.0 °F 66% 30.08 in 10.0 mi WNW 9.2 mph - N/A   Clear
11:56 AM 30.9 °F 20.7 °F 17.1 °F 57% 30.05 in 10.0 mi NW 13.8 mph 20.7 mph N/A   Clear
12:56 PM 35.1 °F 25.5 °F 21.9 °F 59% 30.04 in 10.0 mi NW 15.0 mph - N/A   Clear
1:56 PM 37.0 °F 28.1 °F 23.0 °F 57% 30.03 in 10.0 mi NW 15.0 mph 26.5 mph N/A   Clear
2:56 PM 37.0 °F 26.2 °F 24.1 °F 59% 30.03 in 10.0 mi WNW 21.9 mph 26.5 mph N/A   Clear
3:56 PM 35.1 °F 22.2 °F 21.9 °F 59% 30.06 in 10.0 mi NW 27.6 mph 38.0 mph N/A   Clear
4:56 PM 30.9 °F 18.7 °F 19.9 °F 64% 30.09 in 10.0 mi NW 19.6 mph 29.9 mph N/A   Clear
5:56 PM 27.0 °F 16.1 °F 18.0 °F 69% 30.14 in 10.0 mi NW 12.7 mph - N/A   Clear
6:42 PM 26.6 °F 12.4 °F 17.6 °F 69% 30.09 in 10.0 mi NW 21.9 mph 28.8 mph N/A   Mostly Cloudy
6:56 PM 26.1 °F 12.3 °F 18.0 °F 71% 30.18 in 10.0 mi NW 19.6 mph 28.8 mph N/A   Overcast
7:56 PM 23.0 °F 5.7 °F 16.0 °F 74% 30.22 in 10.0 mi NNW 28.8 mph 35.7 mph N/A   Overcast
8:56 PM 19.9 °F 2.5 °F 14.0 °F 78% 30.25 in 10.0 mi NW 25.3 mph 29.9 mph N/A   Overcast
9:35 PM 19.4 °F 3.2 °F 15.8 °F 86% 30.17 in 10.0 mi NW 20.7 mph 29.9 mph N/A   Overcast
9:56 PM 19.9 °F 2.5 °F 15.1 °F 81% 30.25 in 10.0 mi NNW 25.3 mph 29.9 mph N/A   Overcast
10:56 PM 19.9 °F 5.2 °F 15.1 °F 81% 30.26 in 10.0 mi NW 17.3 mph - N/A   Overcast
11:54 PM 19.4 °F 5.5 °F 14.0 °F 80% 30.20 in 10.0 mi NNW 15.0 mph 24.2 mph N/A   Scattered Clouds
11:56 PM 19.0 °F 5.6 °F 14.0 °F 81% 30.27 in 10.0 mi NW 13.8 mph - N/A   Partly Cloudy